Погода в Брянске

Погода в Брянске : погода сейчас, прогноз погоды и архив. Всё, что Вы хотите узнать о погоде в Брянске!

Поиск расширенной информации на нашем сайте:

Другие новости

Новости СМИ2

Главная страница сайта

Новости сайта

02.10.2013

Напоминаем, что на нашем новом сайте вы можете получить высокодетализированные прогнозы погоды по пунктам России, СНГ и мира (включающие важные для авиации метеовеличины, такие как направление и скорость ветра, видимость, явления погоды, количество и форма облачности, нижняя и верхняя граница облачности), а также ознакомиться с разнообразными материалами по авиационной метеорологии и подборкой полезных ссылок на эту тему.

Сайт Метеоцентр.Азия посвящён разработке технологий оптимизации авиаметеорологического обслуживания, включая проектирование и перспективное создание нескольких автоматизированных авиаметеорологических систем:
- система выпуска высокодетальных прогностических карт явлений погоды для нижнего воздушного пространства по России и ближнему зарубежью;
- система верификации прогнозов TAF (выпускаемых синоптиками официальных АМСГ РФ и ближнего зарубежья) и AUTOTAF (выпускаемых сайтом Метеоцентр.Азия) - выявление ошибок, онлайн-сопоставление с фактической погодой METAR, автоматическое внесение коррективов в прогнозы при резком отклонении фактической погоды от прогноза, подсчёт оправдываемости прогнозов по элементам и в целом;
- система обработки, анализа и отображения авиаметеорологической информации для применения провайдерами метеорологической информации.

Рекомендуем: Детальное описание иайдо харьков на нашем сайте.

Погода в Брянске - сегодня

Время (UTC), дата Ветер
(°,м/с) 
Видим.   Явления Облачность Т
(°С)
Тd
(°С)
f(%) Тe
(°С)
Pmin
(гПа)
dP
(гПа)
Po
(мм)
O2
(г/м3)
Тmin Tmax R s Состояние
почвы
21 17.01.17 290 (З) 10 км    10/10 1170 м 
[Sc]
-4.6 -7.3 81 -6  1036.9  0.8  757  311           
00 18.01.17 290 (З) 10 км    10/10 1170 м 
[Sc]
-4.8 -8.8 74 -4  1037.7  0.7  757  311           
03 18.01.17 270 (З) 10 км    10/10 960 м 
[Sc]
-4.6 -8.5 74 -4  1037.6  757  311  -5.2         
06 18.01.17 280 (З) 14000 м    10/10 1230 м 
[Sc]
-5.3 -7.1 87 -5  1038.2  0.5  758  312  -5.5      29  равномерный
мокрый или
старый снег
100% 
09 18.01.17 300 (СЗ) 15000 м    9/0 средняя 
[Ac trans]
-4.6 -6.6 86 -6  1039.1  758  311           
12 18.01.17 270 (З) 20000 м    8/0 средняя 
[Ac trans]
-4 -7 80 -4  1039  -0.1  758  311           
15 18.01.17 260 (З) 4000 м  дымка  4/0 средняя 
[Ac trans]
-6.4 -7.6 91 -9  1039.3  0.1  758  314           
18 18.01.17 290 (З) 2000 м  дымка  10/10 240 м 
[St]
-7.4 -8 95 -10  1039.8  0.4  759  315    -4       
21 18.01.17 260 (З) 4000 м  дымка  10/10 270 м 
[St]
-8.1 -8.7 95 -10  1039.8  -0.1  758  316           
00 19.01.17 260 (З) 4000 м  дымка  10/10 240 м 
[St]
-7.8 -8.4 95 -9  1038.8  -1  758  315           
03 19.01.17 250 (З) 4000 м  дымка  10/10 270 м 
[St]
-7.2 -7.7 96 -9  1037.8  -0.9  757  314  -8.1         
06 19.01.17 230 (ЮЗ) 9000 м  дымка  10/0 средняя 
[Ac und]
-7.2 -8.1 93 -9  1036.4  -1.3  756  314  -8.1      29  равномерный
сухой снег
100% 
09 19.01.17 250 (З) 14000 м    9/0 средняя 
[Ac trans]
-6.7 -8.7 86 -10  1035.6  -0.7  756  313           
12 19.01.17 230 (ЮЗ) 20000 м    9/0 средняя 
[Ac trans]
-6.4 -10 76 -9  1033.4  -2.2  754  312           
15 19.01.17 220 (ЮЗ) 4{10}  10 км    10/10 480 м 
[St]
-5.5 -8.9 77 -9  1030.9  -2.2  752  310           
18 19.01.17 230 (ЮЗ) 10 км    10/10 500 м 
[St]
-6.1 -8.6 82 -9  1029.3  -1.7  751  310    -5.5       
21 19.01.17 250 (З) 10 км    10/10 420 м 
[St]
-6.8 -9.2 83 -10  1027.2  -2.2  749  311           
00 20.01.17 240 (ЮЗ) 10 км    10/10 420 м 
[St]
-6.7 -9.1 83 -9  1025.2  -1.8  748  310           
03 20.01.17 260 (З) 3{10}  4000 м  дымка{снег}  10/10 420 м 
[Frnb|Ns]
-6.5 -8.1 88 -9  1023.3  -1.9  747  309  -6.9    0.0     
06 20.01.17 270 (З) 9000 м  дымка{снег}  10/10 330 м 
[St]
-5.6 -6.3 95 -9  1022.2  -1  746  307  -6.9    0.0  29  равномерный
сухой снег
100% 
09 20.01.17 260 (З) 9000 м  дымка  10/10 1000 м 
[Sc]
-4 -5.5 89 -6  1022.4  0.3  746  306           
12 20.01.17 260 (З) 20000 м    10/10 800 м 
[Sc]
-2.2 -4.7 83 -3  1021.3  -1  745  303           
15 20.01.17 260 (З) 10 км    10/10 840 м 
[Sc]
-1.8 -4.2 84 -4  1021.3  0.1  745  303      0.0     
18 20.01.17 260 (З) 10 км    10/10 930 м 
[Sc]
-1.8 -3.9 86 -4  1021.1  -0.2  745  303    -1.8       
21 20.01.17 250 (З) 4000 м  дымка  10/10 840 м 
[Sc]
-1.8 -3.2 90 -4  1019.6  -1.3  744  302           
Время (UTC), дата Ветер
(°,м/с) 
Видим.   Явления Облачность Т
(°С)
Тd
(°С)
f(%) Тe
(°С)
Pmin
(гПа)
dP
(гПа)
Po
(мм)
O2
(г/м3)
Тmin Tmax R s Состояние
почвы

Для получения пояснительной информации подведите курсор к названию столбца.

ПОГОДА в Брянске - архив

Всё, что Вы хотите узнать о погоде в Брянске - удобно и подробно!

Выберите нужную дату (начиная с 1 января 2015* года) и нажмите кнопку "Найти".
Будут отображены архивные сводки погоды по пункту Брянск, начиная с указанной даты.


Отображать данные в формате CSV (для использования в таблицах Excel)


Внимание! Наш архив погоды предназначен исключительно для личного некоммерческого использования в познавательных целях. Если Вам необходимы официальные справки о состоянии погоды (для производственных, юридических, коммерческих и т.п. целей), обращайтесь в органы Росгидромета.

*Примечание: данная дата относится к архиву по метеостанциям СССР (Россия, СНГ, Балтия).
Архив по метеостанциям Зарубежной Европы и Азии (кроме Китая) хранится 10 дней, по другим регионам земного шара (Китай, Африка, Америка, Австралия, Океания) - 1 день.

Брянск - район местоположения метеостанции


Название, широта, долгота, высота метеостанции:
Брянск (город) 53.2°ш. 34.3°д. 216 м над ур. моря [Российская Федерация]

Дополнительная информация

В oтличие oт бoльшинства пoгoдных сайтoв мы публикуем пoдрoбную метеoинфoрмацию в детальнoм прoфессиoнальнoм фoрмате.

Характеристики температуры и влажнoсти вoздуха измеряются на высoте 2 м в тени вдали oт зданий и деревьев.
Скoрoсть ветра измеряется на высoте 10 м (на урoвне рoста челoвека скoрoсть ветра ниже в 1.5-2 раза). Если метеoстанция нахoдится в гoрoде или в лесу, тo скoрoсть ветра занижена на 2-4 м/с пo сравнению с oткрытым местoм. Скoрoсть ветра над акватoриями крупных рек и oзёр, а также на вершинах хoлмoв на 2-5 м/с выше, чем в oбычных услoвиях.
Атмoсфернoе давление в разных тoчках местнoсти мoжет значительнo oтличаться oт давления на метеoстанции, в зависимoсти oт услoвий рельефа (при пoдъёме на 10 м давление пoнижается примернo на 1 мм рт.ст.).